Guest
แชร์ หัวข้อ โพสต์โดย อ่าน ตอบ โพสต์ล่าสุด
rbrabbit 8,364 7 18/01/2014 03:09:42
Momay 1,200 5 18/01/2014 02:37:18
Me4tspin 996 2 18/01/2014 02:25:22
NUTTANICK 1,063 4 18/01/2014 01:01:20
JAS-39 826 1 17/01/2014 23:22:32
nongaloha 745 1 17/01/2014 23:20:37
porparty 877 5 17/01/2014 22:24:42
สมพร 751 2 17/01/2014 22:24:35
มือใหม่หัวใจว้า... 999 4 17/01/2014 22:11:43
taskmasterpp 743 2 17/01/2014 19:25:25
gamonoi 782 2 17/01/2014 17:57:35
satinn 1,478 5 17/01/2014 17:34:27
greeny057 896 1 17/01/2014 17:03:14
soryimlate 1,021 11 17/01/2014 16:00:42
zlakeaw 1,027 1 17/01/2014 15:17:48
toot 705 2 17/01/2014 15:14:39
BFMV3003 1,260 22 17/01/2014 13:16:27
nongaloha 870 2 17/01/2014 12:32:40
Parinnut 1,503 3 17/01/2014 09:24:46
Progreso 3,766 6 17/01/2014 08:33:00
hippoeg6 1,150 4 17/01/2014 02:47:27
heavyhex 1,646 19 17/01/2014 02:39:13
wattikorn 945 5 17/01/2014 01:57:31
champ2526 1,141 5 17/01/2014 00:12:00
Bom_baysinton 1,318 5 16/01/2014 23:19:47
flook16comza 1,150 4 16/01/2014 22:55:49
panda14 1,021 7 16/01/2014 22:25:17
mop01zeez 785 3 16/01/2014 22:23:33
sugarmaple 1,333 6 16/01/2014 22:12:40
Russianoptic 856 3 16/01/2014 19:56:05
punfree 2,966 19 16/01/2014 19:11:29
sommeawaya 811 0 16/01/2014 17:28:56
exxy112112 713 2 16/01/2014 17:19:29
Nickkk 785 2 16/01/2014 17:05:17
taskmasterpp 766 1 16/01/2014 16:18:45
dew22799 1,413 13 16/01/2014 16:05:45
Channpat 1,434 7 16/01/2014 15:50:53
toonmanga 1,079 2 16/01/2014 14:42:03
templeboy92 1,731 30 16/01/2014 14:19:17
สมพงษ์ 8,774 14 16/01/2014 13:44:07
nexus 945 3 16/01/2014 12:08:38
หวัดดีชาวร๊อก 919 4 16/01/2014 11:51:01
sanpasilp 1,024 2 16/01/2014 11:33:15
headfi 815 1 16/01/2014 11:23:54
sukonthamarn 837 1 16/01/2014 11:22:37
codenameexe 1,021 6 16/01/2014 11:16:51
Bad Cat Company 875 1 16/01/2014 11:11:30
NookTurboza 1,036 1 16/01/2014 10:51:23
วาเลนไทน์ 1,281 24 16/01/2014 02:50:28
pim1595 5,851 11 16/01/2014 01:57:32
32,451 - 32,500 of 90,000 items : << 645646647648649650651652653654655 >>

ช่องทางการติดต่ออื่น

  • Munkonggadget
  • Munkonggadget Reviews
  • Munkonggadget Reviews
  • Munkonggadget Contact Us